| time (UTC) | temp F | wind direction | speed MPH | gust MPH | rain 1hr in | rain 24hr in | rain mn in | humidity % | barometer mb |
| 20260504024017 | 65 | 193 | 5.0 | 9.0 | 0.00 | 0.00 | 0.00 | 40 | 993.1 |
| 20260504023020 | 66 | 172 | 6.0 | 8.0 | 0.00 | 0.00 | 0.00 | 39 | 993.2 |
| 20260504020018 | 68 | 179 | 4.0 | 7.0 | 0.00 | 0.00 | 0.00 | 36 | 994.1 |
| 20260504015018 | 69 | 177 | 4.0 | 7.0 | 0.00 | 0.00 | 0.00 | 36 | 994.3 |
| 20260504013018 | 70 | 211 | 5.0 | 9.0 | 0.00 | 0.00 | 0.00 | 35 | 995.0 |
| 20260504012018 | 71 | 250 | 4.0 | 9.0 | 0.00 | 0.00 | 0.00 | 34 | 995.2 |
| 20260504010019 | 72 | 227 | 5.0 | 9.0 | 0.00 | 0.00 | 0.00 | 31 | 995.9 |
| 20260504004019 | 73 | 231 | 7.0 | 11.0 | 0.00 | 0.00 | 0.00 | 31 | 996.5 |
| 20260504003020 | 73 | 246 | 9.0 | 12.0 | 0.00 | 0.00 | 0.00 | 30 | 996.7 |
| 20260504002024 | 73 | 236 | 10.0 | 14.0 | 0.00 | 0.00 | 0.00 | 29 | 996.9 |
| 20260504001017 | 73 | 240 | 7.0 | 12.0 | 0.00 | 0.00 | 0.00 | 29 | 997.2 |
| 20260504000019 | 73 | 236 | 9.0 | 14.0 | 0.00 | 0.00 | 0.00 | 30 | 997.4 |
| 20260503234022 | 73 | 239 | 10.0 | 13.0 | 0.00 | 0.00 | 0.00 | 29 | 997.8 |
| 20260503233017 | 73 | 249 | 11.0 | 14.0 | 0.00 | 0.00 | 0.00 | 29 | 998.1 |
| 20260503232017 | 74 | 251 | 9.0 | 14.0 | 0.00 | 0.00 | 0.00 | 30 | 998.3 |
| 20260503231020 | 74 | 237 | 12.0 | 20.0 | 0.00 | 0.00 | 0.00 | 29 | 998.6 |
| 20260503223018 | 73 | 238 | 6.0 | 9.0 | 0.00 | 0.00 | 0.00 | 31 | 999.3 |
| 20260503222019 | 72 | 249 | 8.0 | 12.0 | 0.00 | 0.00 | 0.00 | 31 | 999.7 |
| 20260503221039 | 72 | 233 | 9.0 | 15.0 | 0.00 | 0.00 | 0.00 | 31 | 999.8 |
| 20260503220019 | 72 | 239 | 10.0 | 15.0 | 0.00 | 0.00 | 0.00 | 31 | 1000.3 |
| 20260503215040 | 72 | 234 | 7.0 | 12.0 | 0.00 | 0.00 | 0.00 | 31 | 1000.4 |
| 20260503212020 | 72 | 246 | 9.0 | 12.0 | 0.00 | 0.00 | 0.00 | 32 | 1001.2 |
| 20260503211020 | 72 | 215 | 10.0 | 13.0 | 0.00 | 0.00 | 0.00 | 32 | 1001.4 |
| 20260503210020 | 72 | 268 | 7.0 | 9.0 | 0.00 | 0.00 | 0.00 | 32 | 1001.9 |
| 20260503205017 | 72 | 216 | 8.0 | 14.0 | 0.00 | 0.00 | 0.00 | 32 | 1002.3 |
| 20260503204017 | 71 | 238 | 7.0 | 11.0 | 0.00 | 0.00 | 0.00 | 33 | 1002.5 |
| 20260503203045 | 71 | 234 | 8.0 | 12.0 | 0.00 | 0.00 | 0.00 | 33 | 1002.8 |
| 20260503195018 | 69 | 249 | 8.0 | 10.0 | 0.00 | 0.00 | 0.00 | 33 | 1003.7 |
| 20260503194021 | 70 | 255 | 8.0 | 10.0 | 0.00 | 0.00 | 0.00 | 33 | 1003.9 |
| 20260503192018 | 69 | 246 | 10.0 | 13.0 | 0.00 | 0.00 | 0.00 | 34 | 1004.2 |
| 20260503191019 | 68 | 257 | 8.0 | 11.0 | 0.00 | 0.00 | 0.00 | 36 | 1004.4 |
| 20260503185020 | 68 | 272 | 7.0 | 10.0 | 0.00 | 0.00 | 0.00 | 36 | 1005.2 |
| 20260503184019 | 68 | 246 | 5.0 | 9.0 | 0.00 | 0.00 | 0.00 | 36 | 1005.5 |
| 20260503183019 | 67 | 259 | 4.0 | 6.0 | 0.00 | 0.00 | 0.00 | 36 | 1005.8 |
| 20260503182020 | 66 | 241 | 7.0 | 11.0 | 0.00 | 0.00 | 0.00 | 37 | 1006.1 |
| 20260503181020 | 66 | 297 | 6.0 | 9.0 | 0.00 | 0.00 | 0.00 | 37 | 1006.6 |
| 20260503180017 | 65 | 302 | 4.0 | 7.0 | 0.00 | 0.00 | 0.00 | 38 | 1006.6 |
| 20260503175017 | 65 | 277 | 5.0 | 7.0 | 0.00 | 0.00 | 0.00 | 38 | 1006.9 |
| 20260503174020 | 65 | 264 | 6.0 | 9.0 | 0.00 | 0.00 | 0.00 | 37 | 1007.1 |
| 20260503131018 | 45 | 264 | 2.0 | 4.0 | 0.00 | 0.00 | 0.00 | 55 | 1010.4 |
| 20260503072018 | 47 | 10 | 5.0 | 10.0 | 0.00 | 0.00 | 0.00 | 58 | 1009.1 |
| 20260503071039 | 47 | 336 | 6.0 | 9.0 | 0.00 | 0.00 | 0.00 | 60 | 1009.0 |
| 20260503054017 | 52 | 13 | 5.0 | 8.0 | 0.00 | 0.00 | 0.00 | 62 | 1008.8 |
| 20260503053040 | 52 | 8 | 6.0 | 9.0 | 0.00 | 0.00 | 0.00 | 62 | 1008.7 |
| 20260503045018 | 55 | 10 | 6.0 | 10.0 | 0.00 | 0.00 | 0.00 | 59 | 1008.6 |
| 20260503043023 | 55 | 18 | 5.0 | 8.0 | 0.00 | 0.00 | 0.00 | 58 | 1008.4 |
| 20260503042039 | 55 | 23 | 5.0 | 8.0 | 0.00 | 0.00 | 0.00 | 59 | 1008.4 |
| 20260503041018 | 54 | 4 | 4.0 | 6.0 | 0.00 | 0.00 | 0.00 | 63 | 1008.4 |
| 20260503034024 | 54 | 340 | 3.0 | 5.0 | 0.00 | 0.00 | 0.00 | 66 | 1008.3 |
| 20260503032017 | 54 | 27 | 3.0 | 5.0 | 0.00 | 0.00 | 0.00 | 66 | 1007.9 |
| 20260503030020 | 54 | 30 | 3.0 | 5.0 | 0.00 | 0.00 | 0.00 | 66 | 1007.5 |